| time (UTC) | temp C | wind direction | speed KPH | gust KPH | rain 1hr cm | rain 24hr cm | rain mn cm | humidity % | barometer mb |
| 20260507163018 | 14 | 203 | 19.3 | 25.7 | 0.00 | 0.00 | 0.00 | 68 | 1012.0 |
| 20260507161514 | 13 | 240 | 16.1 | 25.7 | 0.00 | 0.00 | 0.00 | 73 | 1011.9 |
| 20260507160016 | 13 | 247 | 16.1 | 29.0 | 0.00 | 0.00 | 0.00 | 76 | 1011.9 |
| 20260507154510 | 12 | 258 | 17.7 | 30.6 | 0.00 | 0.00 | 0.00 | 77 | 1011.9 |
| 20260507153009 | 12 | 250 | 17.7 | 27.4 | 0.00 | 0.00 | 0.00 | 79 | 1011.7 |
| 20260507151504 | 11 | 255 | 20.9 | 30.6 | 0.00 | 0.00 | 0.00 | 80 | 1011.7 |
| 20260507150002 | 11 | 242 | 17.7 | 30.6 | 0.00 | 0.00 | 0.00 | 84 | 1011.7 |
| 20260507144502 | 9 | 221 | 9.7 | 17.7 | 0.00 | 0.00 | 0.00 | 87 | 1011.8 |
| 20260507143058 | 9 | 231 | 9.7 | 14.5 | 0.00 | 0.00 | 0.00 | 85 | 1011.8 |
| 20260507141555 | 9 | 248 | 6.4 | 20.9 | 0.00 | 0.00 | 0.00 | 85 | 1011.8 |
| 20260507140053 | 10 | 215 | 9.7 | 17.7 | 0.00 | 0.00 | 0.00 | 86 | 1011.3 |
| 20260507134553 | 10 | 237 | 9.7 | 19.3 | 0.00 | 0.00 | 0.00 | 85 | 1011.4 |
| 20260507133051 | 10 | 243 | 11.3 | 17.7 | 0.00 | 0.00 | 0.00 | 84 | 1011.3 |
| 20260507131558 | 10 | 211 | 9.7 | 22.5 | 0.00 | 0.00 | 0.00 | 86 | 1011.0 |
| 20260507130103 | 8 | 243 | 6.4 | 14.5 | 0.00 | 0.00 | 0.00 | 90 | 1011.0 |
| 20260507124551 | 7 | 221 | 6.4 | 9.7 | 0.00 | 0.00 | 0.00 | 90 | 1011.0 |
| 20260507123043 | 7 | 207 | 3.2 | 6.4 | 0.00 | 0.00 | 0.00 | 88 | 1011.2 |
| 20260507121540 | 8 | 189 | 1.6 | 4.8 | 0.00 | 0.00 | 0.00 | 87 | 1011.2 |
| 20260507120041 | 9 | 234 | 4.8 | 9.7 | 0.00 | 0.00 | 0.00 | 87 | 1011.2 |
| 20260507114533 | 10 | 254 | 9.7 | 16.1 | 0.00 | 0.00 | 0.00 | 85 | 1011.2 |
| 20260507113031 | 10 | 248 | 12.9 | 25.7 | 0.00 | 0.00 | 0.00 | 84 | 1011.2 |
| 20260507111530 | 11 | 245 | 19.3 | 27.4 | 0.00 | 0.00 | 0.00 | 83 | 1011.0 |
| 20260507110027 | 10 | 246 | 16.1 | 22.5 | 0.00 | 0.00 | 0.00 | 85 | 1011.0 |
| 20260507104526 | 10 | 259 | 9.7 | 16.1 | 0.00 | 0.00 | 0.00 | 86 | 1011.0 |
| 20260507103024 | 10 | 276 | 11.3 | 17.7 | 0.00 | 0.00 | 0.00 | 85 | 1011.0 |
| 20260507101523 | 10 | 244 | 11.3 | 19.3 | 0.00 | 0.00 | 0.00 | 85 | 1011.0 |
| 20260507100030 | 10 | 265 | 12.9 | 17.7 | 0.00 | 0.00 | 0.00 | 84 | 1011.1 |
| 20260507094520 | 11 | 254 | 12.9 | 25.7 | 0.00 | 0.00 | 0.00 | 81 | 1011.2 |
| 20260507093018 | 11 | 254 | 14.5 | 27.4 | 0.00 | 0.00 | 0.00 | 81 | 1010.9 |
| 20260507091516 | 11 | 242 | 14.5 | 20.9 | 0.00 | 0.00 | 0.00 | 80 | 1011.0 |
| 20260507090020 | 11 | 244 | 14.5 | 20.9 | 0.00 | 0.00 | 0.00 | 78 | 1011.1 |
| 20260507084514 | 11 | 271 | 19.3 | 27.4 | 0.00 | 0.00 | 0.00 | 77 | 1011.0 |
| 20260507083009 | 11 | 236 | 8.0 | 16.1 | 0.00 | 0.00 | 0.00 | 79 | 1011.0 |
| 20260507081513 | 10 | 270 | 9.7 | 17.7 | 0.00 | 0.00 | 0.00 | 80 | 1011.1 |
| 20260507080008 | 10 | 244 | 6.4 | 12.9 | 0.00 | 0.00 | 0.00 | 79 | 1011.1 |
| 20260507074507 | 11 | 246 | 6.4 | 16.1 | 0.00 | 0.00 | 0.00 | 78 | 1011.1 |
| 20260507073001 | 11 | 267 | 11.3 | 16.1 | 0.00 | 0.00 | 0.00 | 78 | 1011.0 |
| 20260507071559 | 11 | 231 | 3.2 | 8.0 | 0.00 | 0.00 | 0.00 | 78 | 1010.9 |
| 20260507070054 | 11 | 248 | 4.8 | 12.9 | 0.00 | 0.00 | 0.00 | 76 | 1010.9 |
| 20260507064553 | 11 | 246 | 6.4 | 11.3 | 0.00 | 0.00 | 0.00 | 75 | 1010.8 |
| 20260507063051 | 11 | 239 | 9.7 | 17.7 | 0.00 | 0.00 | 0.00 | 74 | 1010.6 |
| 20260507061551 | 11 | 244 | 4.8 | 11.3 | 0.00 | 0.00 | 0.00 | 75 | 1010.6 |
| 20260507060050 | 11 | 243 | 6.4 | 11.3 | 0.00 | 0.00 | 0.00 | 75 | 1010.6 |
| 20260507054628 | 12 | 198 | 4.8 | 11.3 | 0.00 | 0.00 | 0.00 | 74 | 1010.6 |
| 20260507053053 | 12 | 246 | 1.6 | 6.4 | 0.00 | 0.00 | 0.00 | 71 | 1010.6 |
| 20260507051549 | 13 | 234 | 3.2 | 12.9 | 0.00 | 0.00 | 0.00 | 68 | 1010.5 |
| 20260507050054 | 14 | 262 | 12.9 | 22.5 | 0.00 | 0.00 | 0.00 | 65 | 1010.4 |
| 20260507044553 | 15 | 285 | 12.9 | 20.9 | 0.00 | 0.00 | 0.00 | 63 | 1010.4 |
| 20260507043048 | 15 | 264 | 11.3 | 20.9 | 0.00 | 0.00 | 0.00 | 63 | 1010.3 |
| 20260507041556 | 15 | 284 | 16.1 | 25.7 | 0.00 | 0.00 | 0.00 | 61 | 1010.1 |
| 20260507040047 | 16 | 267 | 12.9 | 22.5 | 0.00 | 0.00 | 0.00 | 61 | 1009.8 |
| 20260507034555 | 16 | 259 | 12.9 | 27.4 | 0.00 | 0.00 | 0.00 | 61 | 1009.5 |
| 20260507033052 | 17 | 261 | 20.9 | 33.8 | 0.00 | 0.00 | 0.00 | 59 | 1009.3 |
| 20260507031601 | 17 | 265 | 19.3 | 32.2 | 0.00 | 0.00 | 0.00 | 59 | 1009.0 |
| 20260507030052 | 18 | 274 | 16.1 | 25.7 | 0.00 | 0.00 | 0.00 | 58 | 1008.9 |
| 20260507024546 | 18 | 241 | 19.3 | 30.6 | 0.00 | 0.00 | 0.00 | 57 | 1008.6 |
| 20260507023044 | 18 | 278 | 12.9 | 27.4 | 0.00 | 0.00 | 0.00 | 55 | 1008.6 |
| 20260507021543 | 19 | 246 | 16.1 | 27.4 | 0.00 | 0.00 | 0.00 | 54 | 1008.7 |
| 20260507020047 | 20 | 265 | 19.3 | 32.2 | 0.00 | 0.00 | 0.00 | 53 | 1008.6 |
| 20260507014550 | 20 | 256 | 20.9 | 32.2 | 0.00 | 0.00 | 0.00 | 53 | 1008.4 |
| 20260507013045 | 20 | 271 | 17.7 | 27.4 | 0.00 | 0.00 | 0.00 | 54 | 1008.4 |
| 20260507011542 | 21 | 264 | 14.5 | 27.4 | 0.00 | 0.00 | 0.00 | 55 | 1008.4 |
| 20260507010043 | 21 | 288 | 19.3 | 29.0 | 0.00 | 0.00 | 0.00 | 51 | 1008.4 |
| 20260507004540 | 21 | 232 | 20.9 | 30.6 | 0.00 | 0.00 | 0.00 | 53 | 1008.4 |
| 20260507003043 | 21 | 246 | 17.7 | 25.7 | 0.00 | 0.00 | 0.00 | 55 | 1008.2 |
| 20260507001541 | 22 | 262 | 16.1 | 25.7 | 0.00 | 0.00 | 0.00 | 54 | 1008.1 |
| 20260507000041 | 22 | 279 | 19.3 | 30.6 | 0.00 | 0.00 | 0.00 | 52 | 1008.1 |
| 20260506234538 | 22 | 286 | 20.9 | 30.6 | 0.00 | 0.00 | 0.00 | 52 | 1008.2 |
| 20260506233042 | 22 | 277 | 19.3 | 33.8 | 0.00 | 0.00 | 0.00 | 53 | 1008.1 |
| 20260506231536 | 22 | 288 | 17.7 | 30.6 | 0.00 | 0.00 | 0.00 | 51 | 1008.0 |
| 20260506230036 | 22 | 248 | 19.3 | 32.2 | 0.00 | 0.00 | 0.00 | 51 | 1008.1 |
| 20260506224536 | 22 | 246 | 19.3 | 30.6 | 0.00 | 0.00 | 0.00 | 49 | 1008.3 |
| 20260506223036 | 23 | 250 | 17.7 | 30.6 | 0.00 | 0.00 | 0.00 | 53 | 1008.5 |
| 20260506221534 | 23 | 238 | 12.9 | 25.7 | 0.00 | 0.00 | 0.00 | 53 | 1008.5 |
| 20260506220036 | 23 | 208 | 17.7 | 27.4 | 0.00 | 0.00 | 0.00 | 53 | 1008.7 |
| 20260506214532 | 23 | 269 | 17.7 | 30.6 | 0.00 | 0.00 | 0.00 | 51 | 1009.0 |
| 20260506213032 | 24 | 248 | 14.5 | 29.0 | 0.00 | 0.00 | 0.00 | 48 | 1009.0 |
| 20260506211533 | 23 | 291 | 19.3 | 29.0 | 0.00 | 0.00 | 0.00 | 48 | 1009.2 |
| 20260506210032 | 24 | 261 | 19.3 | 33.8 | 0.00 | 0.00 | 0.00 | 48 | 1009.1 |
| 20260506204531 | 24 | 317 | 20.9 | 29.0 | 0.00 | 0.00 | 0.00 | 49 | 1009.1 |
| 20260506203027 | 24 | 259 | 14.5 | 29.0 | 0.00 | 0.00 | 0.00 | 51 | 1009.1 |
| 20260506201525 | 24 | 244 | 16.1 | 25.7 | 0.00 | 0.00 | 0.00 | 50 | 1009.2 |
| 20260506200022 | 23 | 243 | 12.9 | 24.1 | 0.00 | 0.00 | 0.00 | 52 | 1009.2 |
| 20260506194519 | 23 | 242 | 12.9 | 27.4 | 0.00 | 0.00 | 0.00 | 55 | 1009.3 |
| 20260506193014 | 22 | 225 | 16.1 | 24.1 | 0.00 | 0.00 | 0.00 | 61 | 1009.6 |
| 20260506191512 | 22 | 275 | 16.1 | 24.1 | 0.00 | 0.00 | 0.00 | 57 | 1009.6 |
| 20260506190009 | 21 | 240 | 17.7 | 29.0 | 0.00 | 0.00 | 0.00 | 60 | 1009.9 |
| 20260506184506 | 21 | 229 | 14.5 | 27.4 | 0.00 | 0.00 | 0.00 | 61 | 1009.9 |
| 20260506183002 | 20 | 236 | 16.1 | 27.4 | 0.00 | 0.00 | 0.00 | 63 | 1010.1 |
| 20260506181600 | 20 | 216 | 17.7 | 25.7 | 0.00 | 0.00 | 0.00 | 64 | 1010.4 |
| 20260506180106 | 20 | 252 | 16.1 | 25.7 | 0.00 | 0.00 | 0.00 | 63 | 1010.6 |
| 20260506174557 | 20 | 301 | 14.5 | 25.7 | 0.00 | 0.00 | 0.00 | 66 | 1010.7 |
| 20260506173058 | 19 | 246 | 16.1 | 27.4 | 0.00 | 0.00 | 0.00 | 66 | 1010.6 |
| 20260506171556 | 18 | 258 | 16.1 | 25.7 | 0.00 | 0.00 | 0.00 | 69 | 1010.7 |
| 20260506164545 | 17 | 245 | 14.5 | 24.1 | 0.00 | 0.00 | 0.00 | 72 | 1010.6 |